TimeCST,TemperatureF,Dew PointF,Humidity,Sea Level PressureIn,VisibilityMPH,Wind Direction,Wind SpeedMPH,Gust SpeedMPH,PrecipitationIn,Events,Conditions,WindDirDegrees,DateUTC
12:03 AM,39.2,39.2,100,29.62,10.0,Variable,6.9,-,N/A,,Mostly Cloudy,0,2014-01-11 06:03:00
12:53 AM,37.4,37.4,100,29.62,10.0,West,6.9,-,N/A,,Scattered Clouds,270,2014-01-11 06:53:00
12:58 AM,37.4,37.0,99,29.66,10.0,Variable,6.9,-,N/A,,Scattered Clouds,0,2014-01-11 06:58:00
1:38 AM,35.6,35.6,100,29.63,10.0,West,4.6,-,N/A,,Mostly Cloudy,260,2014-01-11 07:38:00
1:58 AM,36.0,36.0,100,29.67,10.0,Variable,5.8,-,N/A,,Overcast,0,2014-01-11 07:58:00
2:58 AM,36.1,36.0,99,29.67,10.0,West,10.4,16.1,N/A,,Overcast,270,2014-01-11 08:58:00
3:48 AM,37.4,35.6,93,29.65,10.0,West,5.8,-,N/A,,Overcast,280,2014-01-11 09:48:00
3:58 AM,36.7,36.5,99,29.68,10.0,West,8.1,-,N/A,,Overcast,280,2014-01-11 09:58:00
4:58 AM,36.3,36.1,99,29.70,10.0,West,6.9,-,N/A,,Overcast,280,2014-01-11 10:58:00
5:58 AM,36.1,36.0,99,29.73,10.0,West,8.1,-,N/A,,Overcast,270,2014-01-11 11:58:00
6:08 AM,35.6,35.6,100,29.71,10.0,West,8.1,18.4,N/A,,Overcast,270,2014-01-11 12:08:00
6:58 AM,35.6,35.6,100,29.75,10.0,West,10.4,17.3,N/A,,Overcast,280,2014-01-11 12:58:00
7:28 AM,35.6,35.6,100,29.73,10.0,West,8.1,-,N/A,,Overcast,280,2014-01-11 13:28:00
7:58 AM,35.6,35.6,100,29.78,10.0,West,5.8,18.4,N/A,,Overcast,270,2014-01-11 13:58:00
8:58 AM,35.8,35.6,99,29.81,10.0,West,8.1,-,N/A,,Overcast,260,2014-01-11 14:58:00
9:18 AM,35.6,35.6,100,29.80,10.0,West,8.1,-,N/A,,Overcast,270,2014-01-11 15:18:00
9:58 AM,37.6,36.0,94,29.84,10.0,West,9.2,-,N/A,,Mostly Cloudy,270,2014-01-11 15:58:00
10:18 AM,37.4,35.6,93,29.83,10.0,West,9.2,-,N/A,,Scattered Clouds,260,2014-01-11 16:18:00
10:58 AM,40.5,35.1,81,29.84,10.0,Variable,6.9,-,N/A,,Clear,0,2014-01-11 16:58:00
11:58 AM,43.5,34.3,70,29.81,10.0,West,10.4,-,N/A,,Clear,280,2014-01-11 17:58:00
12:58 PM,46.8,33.8,61,29.79,10.0,West,6.9,-,N/A,,Mostly Cloudy,260,2014-01-11 18:58:00
1:58 PM,47.8,32.7,56,29.80,10.0,West,11.5,18.4,N/A,,Overcast,260,2014-01-11 19:58:00
2:58 PM,49.3,31.6,51,29.80,10.0,WSW,12.7,19.6,N/A,,Clear,250,2014-01-11 20:58:00
3:58 PM,48.9,34.7,58,29.83,10.0,West,12.7,20.7,N/A,,Partly Cloudy,260,2014-01-11 21:58:00
4:58 PM,46.2,32.2,58,29.87,10.0,West,8.1,-,N/A,,Clear,280,2014-01-11 22:58:00
5:58 PM,43.0,31.3,63,29.90,10.0,West,6.9,-,N/A,,Clear,270,2014-01-11 23:58:00
6:58 PM,40.5,31.1,69,29.93,10.0,West,3.5,-,N/A,,Clear,270,2014-01-12 00:58:00
7:58 PM,37.9,31.1,76,29.95,10.0,West,5.8,-,N/A,,Clear,270,2014-01-12 01:58:00
8:58 PM,37.2,32.5,83,29.97,10.0,West,5.8,-,N/A,,Clear,260,2014-01-12 02:58:00
9:58 PM,36.3,33.1,88,29.98,10.0,WSW,5.8,-,N/A,,Clear,250,2014-01-12 03:58:00
10:58 PM,34.0,32.5,94,30.00,10.0,WSW,5.8,-,N/A,,Clear,240,2014-01-12 04:58:00
11:58 PM,33.1,32.7,99,29.98,10.0,SW,4.6,-,N/A,,Clear,230,2014-01-12 05:58:00